GFSFLT2_con_3kmhel_030.txt.gz
Helicity
92 62 60 105 101 112 100 77 65 56 41 30 15 11 10 11 22 23 16 10 7 1 -13 -21 -21 -33 -15 -9 2 4 63 25
109 -2 89 109 76 43 67 62 51 46 24 4 -7 -9 -1 11 23 30 24 17 15 5 -10 -12 2 -21 -62 -12 24 -16 27 2
-59 21 21 35 33 76 71 40 25 21 -0 -10 -16 -29 -14 18 33 39 34 23 23 21 6 -9 34 41 18 33 64 28 65 46
-49 1 -18 -27 57 27 6 -13 -26 -23 -17 13 -16 2 24 41 37 26 18 16 28 20 16 27 48 73 75 86 47 17 31 64
2 92 40 45 7 -12 -20 -48 -36 24 27 32 36 46 21 47 56 -11 -5 -3 25 50 61 94 75 59 52 50 36 37 34 66
77 77 79 40 -39 -51 -21 49 95 51 31 32 39 25 45 87 60 109 138 64 74 79 87 130 127 98 104 95 73 63 36 45
77 55 70 14 42 124 222 183 86 34 53 82 125 110 88 84 146 176 195 142 106 99 127 112 122 111 117 118 96 61 52 70
86 56 62 110 214 162 178 99 68 67 105 94 121 115 147 81 97 130 129 125 127 96 70 79 84 86 78 109 107 105 131 111
88 75 76 216 178 178 149 76 70 18 68 61 72 100 84 82 146 148 108 106 79 66 81 116 109 92 99 100 72 121 143 89
123 90 206 237 160 96 123 202 53 15 -8 -46 -36 91 111 105 96 93 91 80 88 84 105 131 97 85 81 66 120 145 108 108
135 159 279 208 137 160 199 179 -15 -89 -51 27 -14 68 57 51 87 84 70 107 115 143 161 134 109 92 94 113 129 111 103 63
209 218 181 208 177 175 81 66 39 13 10 33 2 41 65 88 70 68 69 104 151 156 115 91 102 93 108 111 132 145 69 129
208 215 142 169 171 132 66 89 74 62 42 74 74 62 76 114 183 153 140 141 140 122 142 161 120 124 127 137 124 115 154 189
304 216 132 86 72 86 98 96 75 92 91 72 98 94 113 115 116 137 189 159 135 164 162 143 162 157 165 144 151 171 155 237
225 123 77 35 42 88 108 148 168 131 98 79 123 106 136 140 143 160 149 157 154 154 139 176 216 194 142 220 201 250 243 188
110 61 69 45 38 86 136 126 163 172 191 276 184 112 87 137 148 131 144 144 132 144 166 196 191 212 204 227 198 284 292 251
37 91 74 150 83 147 117 273 326 346 380 348 190 134 165 161 228 264 249 211 165 153 155 180 213 240 271 248 242 274 268 288
67 72 252 175 187 251 248 317 357 368 337 217 119 269 270 277 276 231 181 178 171 156 173 252 293 240 200 208 197 249 268 230
184 245 253 238 270 320 362 390 375 329 221 217 269 229 251 241 223 175 160 151 135 127 163 207 199 183 178 169 170 219 230 199
187 255 289 296 288 291 321 346 307 212 301 282 189 227 214 204 179 172 144 134 116 105 171 191 161 168 143 160 125 177 171 146

GFSFLT2_con_3kmhel_033.txt.gz
Helicity
102 106 54 21 8 39 52 44 52 41 36 29 24 25 25 25 25 22 24 20 15 11 -2 -10 -19 -14 41 82 35 23 32 -9
156 119 -37 -6 29 59 42 64 34 25 19 3 7 14 21 22 31 32 31 30 22 12 8 22 23 -8 31 38 46 53 17 23
44 -34 31 33 46 -4 34 40 15 2 13 15 -2 -3 9 19 9 33 32 34 26 8 18 38 37 29 18 26 32 13 10 6
13 16 10 0 -15 -24 -2 16 -26 -9 -3 -11 -21 -8 -8 17 18 25 15 26 25 21 22 6 41 47 18 22 8 12 20 -3
-130 -44 17 0 -27 -34 7 -11 -16 18 9 8 -13 2 21 36 26 13 56 47 90 111 65 103 143 100 81 65 50 39 21 28
-28 -21 -28 -13 -3 -16 9 4 -1 13 48 71 101 150 142 123 137 124 134 97 105 128 165 133 111 100 98 105 100 76 69 78
3 45 -4 -4 50 77 76 70 72 84 117 122 124 121 142 99 108 150 186 162 141 144 108 107 96 116 134 116 99 99 122 101
80 50 52 106 142 191 166 172 172 138 115 82 105 101 117 157 204 156 196 122 105 125 102 113 108 119 117 103 101 139 114 81
91 65 122 187 220 206 195 198 188 159 118 93 112 116 136 186 171 169 118 95 80 103 136 144 156 145 134 105 130 95 78 65
72 103 157 198 197 169 186 213 187 144 105 24 0 63 139 111 126 109 105 88 96 120 127 136 131 133 110 101 100 100 96 72
129 140 154 203 189 208 206 167 130 48 -24 -73 -45 74 108 87 109 102 128 156 145 120 116 110 108 85 59 60 88 93 76 74
237 192 207 213 236 217 152 107 60 28 21 22 88 103 64 62 73 93 134 142 136 110 108 86 62 44 48 65 79 87 103 129
304 251 245 256 267 234 149 90 44 62 55 81 77 96 142 138 138 128 126 121 92 91 80 81 49 66 60 63 52 95 135 196
331 242 239 214 209 150 108 57 73 122 129 147 126 126 132 137 152 134 132 119 125 109 102 87 92 102 72 63 89 78 169 156
339 247 189 152 98 103 159 133 188 158 173 185 181 162 129 69 106 62 148 107 101 101 97 103 106 94 112 138 145 145 111 109
294 171 145 99 87 123 231 209 231 179 217 199 180 146 124 111 194 219 223 161 162 113 103 120 154 144 152 167 156 159 177 181
135 93 103 69 69 140 243 225 263 287 318 240 124 129 232 295 265 266 235 197 163 154 146 155 166 188 179 174 169 191 217 251
166 131 97 91 172 216 352 414 466 481 432 341 354 403 297 287 291 253 209 171 169 155 148 172 190 176 167 175 180 200 230 277
157 155 185 276 385 416 456 472 490 460 401 439 376 306 299 292 233 209 155 155 153 154 160 162 157 157 149 167 185 187 221 249
148 232 343 399 395 429 500 516 487 428 448 378 346 338 314 379 237 195 179 132 133 132 140 136 161 176 159 154 189 165 184 221

GFSFLT2_con_3kmhel_036.txt.gz
Helicity
246 253 151 82 -14 -3 3 31 43 28 18 35 31 21 31 36 30 34 38 38 35 44 47 37 31 26 55 49 36 47 21 -6
411 301 106 39 -18 6 25 17 30 -0 -2 22 31 37 38 31 28 34 44 44 46 59 45 54 28 21 36 57 59 31 23 13
85 45 -50 -80 -52 -30 -12 -14 -33 -12 25 42 50 38 39 41 31 43 43 36 40 63 62 55 73 47 45 48 52 3 14 9
-107 -144 -117 -77 -20 -19 -33 -9 -9 26 40 51 55 67 43 22 46 64 76 64 68 73 102 113 98 74 49 33 11 26 33 6
-133 -16 5 2 -16 -35 -24 20 71 57 46 23 48 53 49 51 56 63 76 82 88 109 151 136 122 99 86 75 69 78 75 79
-125 -14 -9 -11 -24 -25 -15 46 44 86 62 54 38 44 48 49 78 117 149 133 162 155 157 159 135 108 108 119 109 105 94 76
9 -14 -33 -27 -5 -12 -0 51 91 83 96 104 69 76 99 119 171 184 179 168 186 187 166 141 143 141 139 133 123 128 113 93
4 -9 -26 1 43 36 60 113 112 104 106 136 125 122 131 153 172 203 226 206 214 164 135 114 116 123 146 123 130 124 111 106
-5 -5 13 41 56 72 131 124 110 117 115 123 140 125 138 166 205 239 198 171 143 126 113 114 131 131 137 119 124 117 104 88
8 28 74 116 149 196 202 166 152 138 138 129 124 142 137 166 207 228 156 165 138 125 114 115 111 101 93 109 98 119 119 135
106 131 186 215 224 217 203 185 143 126 99 98 78 117 148 181 212 200 168 151 144 114 119 79 70 68 43 50 64 87 124 151
164 181 236 265 271 245 220 200 144 111 91 76 114 161 178 185 199 161 136 128 120 98 74 73 49 25 35 70 42 103 159 143
200 232 227 294 273 238 195 143 125 96 65 116 155 141 154 184 161 120 114 126 82 53 23 41 60 78 70 60 15 84 170 140
204 217 245 261 249 231 188 130 98 75 72 105 148 164 171 127 96 108 82 77 26 70 91 82 82 90 83 51 93 113 126 69
247 213 249 251 248 237 239 229 220 191 168 178 176 171 147 127 118 132 107 71 54 129 102 98 103 92 80 107 137 138 111 61
263 261 252 221 240 255 299 282 317 244 202 199 175 143 162 194 166 161 185 187 199 130 117 115 123 84 109 129 151 177 167 152
331 248 207 155 196 212 289 275 262 243 243 250 207 258 283 284 301 343 286 273 236 167 175 154 120 145 142 149 162 162 162 171
281 266 138 125 144 186 258 277 275 296 297 285 323 371 367 319 295 266 245 296 176 130 159 161 152 160 178 170 185 198 195 193
222 177 143 124 153 191 249 316 345 347 383 416 459 439 395 301 342 379 168 266 178 146 167 168 165 183 187 171 171 180 191 194
179 98 161 172 209 252 348 425 459 485 493 482 454 386 412 326 216 242 231 230 152 151 135 133 154 172 174 151 132 129 161 186

GFSFLT2_con_3kmhel_042.txt.gz
Helicity
352 363 285 239 102 119 64 46 40 51 93 54 64 76 94 80 54 41 46 56 53 56 62 66 60 40 45 42 37 31 -4 -5
367 536 383 214 73 47 18 7 23 88 74 72 75 81 69 56 50 57 58 60 91 66 79 71 64 69 70 74 63 52 17 12
393 564 272 41 65 45 17 18 53 73 91 84 107 90 75 64 64 50 45 84 97 114 113 110 113 103 73 57 55 25 33 32
313 375 327 180 173 -7 52 40 84 99 117 113 93 65 57 78 55 65 88 107 131 161 165 159 121 59 44 77 50 60 63 51
192 102 181 82 15 -8 5 89 122 89 12 82 69 68 74 68 79 74 86 107 136 155 156 129 111 73 62 67 70 70 63 80
-110 -117 -262 -100 -53 64 69 -2 -16 -29 21 49 60 68 73 84 77 90 122 134 172 178 154 131 121 110 93 90 80 86 86 85
-176 -178 -26 26 -28 -36 -18 -20 -4 -25 39 59 55 41 60 79 102 133 159 178 212 209 164 136 129 125 122 111 103 93 88 70
-53 -66 -41 -41 -24 -17 -21 19 -9 -27 -17 21 33 63 83 125 152 168 195 234 226 191 160 149 126 123 140 133 123 117 115 102
7 -15 1 11 13 15 7 19 26 6 9 45 69 89 123 147 172 210 250 258 233 184 156 137 131 132 150 150 135 138 134 119
5 -3 -17 -9 -23 -22 -10 2 17 32 60 74 84 103 141 203 269 271 236 202 169 145 122 132 127 123 115 131 135 128 132 113
24 4 3 -10 -30 -12 8 27 36 43 62 65 91 120 180 275 255 237 203 181 143 116 114 99 107 118 134 121 84 86 83 68
13 -3 -6 9 13 29 44 67 64 66 86 93 124 161 220 266 253 221 184 170 152 121 104 136 122 110 76 82 56 65 55 54
55 67 57 82 69 86 112 121 99 110 123 139 155 182 220 237 226 199 166 164 128 121 123 116 94 45 -4 16 3 4 74 101
92 103 116 122 142 148 156 185 124 130 164 168 175 204 202 200 199 194 183 178 180 158 145 112 11 -51 -58 -5 58 78 103 100
104 132 160 165 207 266 245 272 204 198 197 197 174 186 188 196 222 228 207 200 212 185 144 25 -24 -26 -89 72 133 140 81 123
97 153 169 183 245 276 315 294 275 226 219 206 216 202 227 234 238 228 246 247 218 131 45 66 38 53 104 155 187 142 181 227
136 185 183 190 243 258 295 293 289 240 253 248 255 256 256 245 258 278 252 238 195 144 38 35 64 90 184 176 205 276 259 247
208 227 196 207 213 265 275 276 289 241 261 303 285 278 265 258 275 278 270 241 191 253 75 37 127 185 190 167 221 242 258 213
214 243 208 221 253 280 265 290 228 211 245 304 329 314 304 296 334 345 321 345 209 -24 134 135 157 174 173 168 211 210 236 256
231 226 192 262 292 259 298 271 240 239 288 342 317 319 358 372 419 455 405 346 111 182 181 151 202 260 201 177 206 217 231 237

GFSFLT2_con_3kmhel_045.txt.gz
Helicity
384 411 329 173 110 156 118 178 86 66 78 81 119 88 69 42 38 34 33 54 48 31 54 51 54 51 67 65 39 27 18 -1
556 406 301 197 77 107 163 138 67 36 76 121 98 98 75 66 61 55 39 48 73 91 96 89 78 84 73 44 31 16 10 9
698 649 264 256 73 97 150 97 27 45 95 130 113 79 60 58 73 73 78 93 90 110 120 125 121 104 72 51 23 4 12 8
232 163 247 147 108 150 139 41 -8 46 99 105 106 86 72 73 67 98 117 118 140 142 139 123 78 34 25 37 20 22 19 19
249 424 641 317 159 166 194 -35 19 93 103 116 92 82 78 64 66 66 76 111 101 114 120 87 61 46 41 36 40 41 40 50
236 394 383 271 -10 93 48 -2 72 73 58 89 75 78 74 68 61 65 91 97 128 141 114 89 77 69 63 62 65 59 62 64
-92 -107 -121 -205 -83 -39 -13 61 40 38 85 66 64 67 67 66 78 92 106 119 139 133 103 81 82 84 85 87 84 73 72 66
-165 -109 18 36 21 8 -9 -31 -31 27 52 44 49 48 66 77 106 132 145 146 145 119 101 94 98 95 96 90 86 79 71 69
-9 -15 -31 -28 -6 3 -2 23 66 39 34 28 36 46 70 102 138 154 167 171 162 144 132 116 109 103 106 95 88 81 82 93
-0 -0 -1 2 9 5 -24 -4 25 37 34 31 44 65 87 120 145 170 174 154 137 146 127 124 109 89 92 99 97 96 106 108
51 28 16 9 -13 -24 -16 1 7 20 37 43 56 75 89 118 166 192 172 157 156 132 129 110 98 98 104 99 95 103 119 128
51 24 2 -10 -24 -9 -4 5 4 15 21 32 57 79 98 143 186 191 181 188 160 147 137 134 119 115 110 106 84 36 63 100
45 35 28 16 14 19 6 13 25 28 28 50 68 101 129 162 198 211 191 178 175 169 175 153 148 127 90 11 -6 44 39 76
24 29 37 49 35 42 44 73 51 48 82 86 99 111 144 191 212 214 206 218 212 200 176 190 149 114 3 -29 -10 3 13 85
52 54 60 69 65 85 94 104 103 104 115 100 117 138 173 208 220 228 223 232 223 207 220 191 130 48 -68 -17 46 115 137 143
49 57 71 83 103 112 130 122 151 151 159 160 162 155 192 229 242 251 253 243 256 269 237 196 119 -6 -46 4 113 155 175 160
82 68 71 86 110 109 142 141 148 187 213 171 183 222 245 258 272 269 269 285 299 275 242 125 99 55 -19 107 138 171 177 148
140 125 108 123 131 148 161 187 227 238 228 214 236 245 262 268 278 269 294 337 313 218 159 106 102 45 124 119 126 122 141 158
153 169 143 153 168 171 182 197 214 211 227 257 289 287 291 289 283 324 380 383 294 230 249 78 90 124 167 165 94 142 156 156
188 181 156 183 181 181 202 211 237 209 238 267 252 303 305 282 314 372 459 347 329 238 114 139 170 178 129 113 148 148 172 187

GFSFLT2_con_3kmhel_048.txt.gz
Helicity
340 340 270 278 246 107 103 155 146 161 150 112 73 54 76 70 66 62 69 65 53 49 61 46 38 32 24 13 2 -21 2 -5
475 536 567 318 208 98 138 179 200 156 137 121 70 67 75 72 88 91 77 72 67 63 69 66 40 45 37 20 -2 -34 8 8
507 693 760 684 402 171 86 158 131 132 115 60 30 44 62 36 80 59 87 85 85 96 78 62 60 45 34 -1 -43 7 5 5
587 622 363 204 137 93 37 65 86 112 65 46 46 59 50 54 66 93 93 109 112 77 66 42 -6 10 11 -8 16 1 9 8
791 662 647 309 124 154 24 90 68 123 20 51 59 70 50 40 44 37 54 76 44 51 39 35 32 20 26 19 15 9 16 27
102 122 76 183 297 237 214 259 166 8 32 74 67 68 46 33 31 43 52 30 50 54 59 69 40 40 36 26 23 29 40 43
197 220 317 390 581 430 72 -4 -8 13 47 39 31 45 50 50 47 48 40 55 56 81 81 50 49 48 37 39 44 50 49 50
97 72 82 107 88 -104 -33 -16 -16 44 11 29 46 43 40 50 48 54 66 66 87 89 56 56 57 53 53 49 59 56 57 47
-66 -111 -130 -62 -70 40 31 7 -2 -11 -14 0 48 32 38 48 62 70 82 107 114 109 80 71 72 66 65 63 56 52 59 49
13 0 7 -4 -48 -27 -21 -28 -25 -37 -35 -10 27 37 39 50 60 80 113 100 98 106 81 88 89 88 82 70 65 56 62 57
17 -3 4 -18 -30 -22 -19 -20 -28 -36 19 21 23 28 61 46 70 97 109 112 126 111 97 107 122 111 88 74 76 66 66 83
41 26 15 7 -13 -18 -16 -19 -24 -7 12 17 25 42 43 64 85 114 125 127 134 121 130 135 132 115 97 86 79 70 88 76
86 62 35 18 7 -6 -15 -10 -12 -14 -2 18 34 40 54 69 95 127 143 139 128 147 162 149 143 126 98 98 96 78 35 18
50 39 19 7 4 -5 -11 -5 -2 -4 16 26 41 44 64 70 100 131 125 145 171 175 165 166 169 152 156 136 55 70 62 32
50 46 21 11 -1 -10 -13 -7 0 11 39 55 83 85 78 99 120 150 168 180 183 183 180 168 188 170 147 131 129 93 129 187
36 37 35 32 24 23 41 54 51 56 56 61 88 96 103 110 145 189 209 192 211 206 196 194 184 201 167 86 29 115 87 133
53 58 63 64 69 39 41 30 38 62 83 102 128 133 149 154 178 200 227 233 227 236 242 211 211 187 162 161 59 47 87 146
59 69 76 78 82 82 63 59 62 95 131 121 147 169 174 168 188 196 208 232 252 247 232 254 237 232 127 117 104 106 135 155
72 76 83 88 106 82 72 66 82 125 118 115 169 195 247 229 238 224 230 224 247 260 335 259 219 165 138 127 148 151 172 166
86 105 114 111 120 101 101 100 141 131 120 156 198 236 261 243 270 257 233 272 367 402 329 264 163 158 163 189 165 138 174 169